New Delhi, India

12:57 PM IST on August 27, 2016 (GMT +0530)
Indira Gandhi International

Weather History for VIDP - February, 2014

Change the Weather History Date:

Saturday, February 22, 2014

  Actual Average Record
Temperature  
Mean Temperature 62 °F -  
Max Temperature 68 °F 80 °F 84 °F (2015)
Min Temperature 55 °F 57 °F 52 °F (2016)
Degree Days  
Heating Degree Days 4    
Growing Degree Days 12 (Base 50)    
Moisture  
Dew Point 56 °F    
Average Humidity 86    
Maximum Humidity 94    
Minimum Humidity 68    
Precipitation  
Precipitation 0.00 in - - ()
Sea Level Pressure  
Sea Level Pressure 30.03 in    
Wind  
Wind Speed 5 mph ()    
Max Wind Speed 8 mph    
Max Gust Speed -    
Visibility 0.9 miles    
Events      
Averages and records for this station are not official NWS values.
T = Trace of Precipitation, MM = Missing Value Source: Averaged Metar Reports

Daily Weather History Graph

Daily Weather History Graph

Search for Another Location

Airport or City:

Trip Planner

Search our weather history database for the weather conditions in past years. The results will help you decide how hot, cold, wet, or windy it might be!

Date:

Astronomy

Feb. 22, 2014 Rise Set
Actual Time 6:53 AM IST 6:16 PM IST
Civil Twilight 6:30 AM IST 6:40 PM IST
Nautical Twilight 6:02 AM IST 7:08 PM IST
Astronomical Twilight 5:35 AM IST 7:35 PM IST
Moon No Moon Rise 11:16 AM IST (2/22)
Length of Visible Light 12h 10m
Length of Day
11h 22m
Waning Gibbous, 55% of the Moon is Illuminated
Feb 22
Waning Gibbous
Feb 22
Last Quarter
Mar 1
New
Mar 8
First Quarter
Mar 16
Full

Hourly Weather History & Observations

Time (IST) Temp. Dew Point Humidity Pressure Visibility Wind Dir Wind Speed Gust Speed Precip Events Conditions
12:00 AM 59.0 °F 55.4 °F 88% 29.98 in 1.0 mi East 6.9 mph - N/A   Scattered Clouds
1:00 AM 57.2 °F 53.6 °F 88% 29.98 in 0.9 mi East 5.8 mph - N/A   Scattered Clouds
1:30 AM 57.2 °F 53.6 °F 88% 29.98 in 0.9 mi East 6.9 mph - N/A   Scattered Clouds
2:00 AM 57.2 °F 53.6 °F 88% 29.98 in 0.9 mi SE 6.9 mph - N/A   Scattered Clouds
2:30 AM 57.2 °F 53.6 °F 88% 29.98 in 0.9 mi SE 4.6 mph - N/A   Scattered Clouds
3:30 AM 57.2 °F 53.6 °F 88% 29.98 in 0.9 mi ESE 3.5 mph - N/A   Partly Cloudy
4:00 AM 57.2 °F 53.6 °F 88% 29.98 in 0.7 mi ESE 4.6 mph - N/A   Partly Cloudy
4:30 AM 57.2 °F 53.6 °F 88% 29.98 in 0.7 mi ESE 6.9 mph - N/A   Partly Cloudy
5:00 AM 55.4 °F 53.6 °F 94% 29.98 in 0.7 mi East 4.6 mph - N/A   Partly Cloudy
5:30 AM 55.4 °F 53.6 °F 94% 29.98 in 0.7 mi East 5.8 mph - N/A   Partly Cloudy
6:00 AM 55.4 °F 53.6 °F 94% 29.98 in 0.7 mi ESE 5.8 mph - N/A   Partly Cloudy
6:30 AM 55.4 °F 53.6 °F 94% 30.01 in 0.7 mi ESE 6.9 mph - N/A   Scattered Clouds
7:00 AM 57.2 °F 53.6 °F 88% 30.01 in 0.9 mi ESE 6.9 mph - N/A   Scattered Clouds
7:30 AM 57.2 °F 53.6 °F 88% 30.01 in 0.9 mi ESE 8.1 mph - N/A   Scattered Clouds
8:00 AM 57.2 °F 53.6 °F 88% 30.04 in 0.6 mi ESE 5.8 mph - N/A   Scattered Clouds
8:30 AM 57.2 °F 53.6 °F 88% 30.06 in 0.6 mi ESE 4.6 mph - N/A   Scattered Clouds
9:00 AM 57.2 °F 53.6 °F 88% 30.06 in 0.7 mi East 5.8 mph - N/A   Scattered Clouds
9:30 AM 59.0 °F 55.4 °F 88% 30.09 in 0.9 mi ESE 5.8 mph - N/A   Scattered Clouds
10:00 AM 60.8 °F 57.2 °F 88% 30.09 in 0.9 mi ESE 5.8 mph - N/A   Scattered Clouds
11:30 AM 62.6 °F 57.2 °F 82% 30.09 in 0.9 mi SE 5.8 mph - N/A   Scattered Clouds
12:00 PM 62.6 °F 57.2 °F 82% 30.09 in 0.9 mi ESE 8.1 mph - N/A   Scattered Clouds
12:30 PM 62.6 °F 57.2 °F 82% 30.09 in 0.9 mi SSE 4.6 mph - N/A   Scattered Clouds
1:30 PM 64.4 °F 57.2 °F 77% 30.06 in 1.1 mi ESE 5.8 mph - N/A   Scattered Clouds
2:00 PM 66.2 °F 55.4 °F 68% 30.04 in 1.2 mi SSW 4.6 mph - N/A   Haze
2:30 PM 68.0 °F 57.2 °F 68% 30.01 in 1.2 mi WSW 6.9 mph - N/A   Haze
3:00 PM 68.0 °F 57.2 °F 68% 30.01 in 1.2 mi WSW 5.8 mph - N/A   Haze
3:30 PM 68.0 °F 57.2 °F 68% 30.01 in 1.2 mi WSW 5.8 mph - N/A   Haze
4:00 PM 68.0 °F 59.0 °F 73% 30.01 in 1.2 mi WNW 8.1 mph - N/A   Haze
4:30 PM 66.2 °F 59.0 °F 78% 30.01 in 1.2 mi West 6.9 mph - N/A   Haze
5:00 PM 66.2 °F 59.0 °F 78% 30.01 in 1.2 mi West 8.1 mph - N/A   Mist
5:30 PM 64.4 °F 59.0 °F 83% 30.01 in 1.0 mi West 6.9 mph - N/A   Mist
6:30 PM 62.6 °F 59.0 °F 88% 30.04 in 0.7 mi West 4.6 mph - N/A   Mist
7:00 PM 60.8 °F 57.2 °F 88% 30.04 in 0.7 mi West 4.6 mph - N/A   Mist
7:30 PM 59.0 °F 57.2 °F 94% 30.04 in 0.6 mi West 6.9 mph - N/A   Mist
8:00 PM 59.0 °F 57.2 °F 94% 30.06 in 0.6 mi West 6.9 mph - N/A   Mist
8:30 PM 59.0 °F 57.2 °F 94% 30.06 in 0.6 mi WNW 4.6 mph - N/A   Mist
9:00 PM 59.0 °F 57.2 °F 94% 30.06 in 0.7 mi WSW 3.5 mph - N/A   Mist
9:30 PM 59.0 °F 57.2 °F 94% 30.06 in 0.7 mi WSW 3.5 mph - N/A   Mist
10:00 PM 59.0 °F 57.2 °F 94% 30.09 in 0.7 mi Calm Calm - N/A   Partly Cloudy
10:30 PM 59.0 °F 57.2 °F 94% 30.09 in 0.6 mi Calm Calm - N/A   Scattered Clouds
11:00 PM 57.2 °F 55.4 °F 94% 30.09 in 0.6 mi Calm Calm - N/A   Scattered Clouds